Regional Weather Roundup
Issued by NWS

Home | Current Version | Previous Version | Text Only | Print | Product List | Glossary Off
Versions: 1 2 3 4 5 6 7 8 9 10 11 12 13 14 15 16 17 18 19 20 21 22 23 24 25 26 27 28 29 30 31 32 33 34 35 36 37 38 39 40 41 42 43 44 45 46 47 48 49 50

000
ASUS43 KIND 060059
RWRIN

WEATHER ROUNDUP FOR INDIANA
NATIONAL WEATHER SERVICE INDIANAPOLIS IN
800 PM EST MON DEC 05 2016

NOTE: "FAIR" INDICATES FEW OR NO CLOUDS BELOW 12,000 FEET WITH NO
SIGNIFICANT WEATHER AND/OR OBSTRUCTIONS TO VISIBILITY.

* - STATION DOES NOT REPORT WEATHER SUCH AS PRECIPITATION OR FOG.

+ - STATION NOT QUALITY CONTROLLED BY THE NATIONAL WEATHER SERVICE.
    USE DATA WITH CAUTION...ESPECIALLY DEWPOINT AND RELATIVE
    HUMIDITY OBSERVATIONS.

INZ001>003-010>013-019-020-060200-
NORTHWEST INDIANA

CITY           SKY/WX    TMP DP  RH WIND       PRES   REMARKS
GARY /AIRPORT/ CLOUDY    34  32  93 SE7       30.01S WCI  28
MONTICELLO +   CLEAR     34  30  85 E5        29.98F WCI  30
RENSSELAER +     N/A     32  32 100 E8        29.98F WCI  25

$$

LMZ046-743>745-060200-
SOUTHERN LAKE MICHIGAN

STATION/POSITION TIME  TEMP    WIND        PRES    WAVE
                       AIR SEA DIR/SP/G            HT
                 (UTC) (F)     (DEG/KT/KT) (MB)    (FT)
BURNS HARBOR     0040   33     110/  8/ 13 1016.3F

$$

INZ004-005-014>016-021>024-060200-
NORTH CENTRAL INDIANA

CITY           SKY/WX    TMP DP  RH WIND       PRES   REMARKS
ELKHART        CLOUDY    32  30  93 SE9       30.03R WCI  24
GOSHEN         CLOUDY    32  28  85 E6        30.01F WCI  26
SOUTH BEND     CLOUDY    31  30  96 SE9       30.02S WCI  23
WARSAW +       PTCLDY    32  28  86 E6        30.01F WCI  26

$$

INZ006>009-017-018-025>027-060200-
NORTHEAST INDIANA

CITY           SKY/WX    TMP DP  RH WIND       PRES   REMARKS
ANGOLA *+      MOCLDY    30  21  69 SE5       30.02S WCI  25
FORT WAYNE     PTCLDY    28  26  92 E6        30.02F WCI  22
KENDALLVILLE + CLOUDY    31  29  94 E3        30.02F

$$

INZ028-029-035-036-043>045-051>053-060200-
WEST CENTRAL INDIANA

CITY           SKY/WX    TMP DP  RH WIND       PRES   REMARKS
CRAWFORDSVL +  CLEAR     32  32 100 E7        29.95F WCI  26
GREENCASTLE +  CLEAR     34  34 100 E6        29.95F WCI  29
LAFAYETTE      CLEAR     34  32  92 E8        29.97F WCI  27
TERRE HAUTE    CLEAR     33  28  81 E5        29.94F WCI  29

$$

INZ030>032-037>040-046>048-054>057-064-065-060200-
CENTRAL INDIANA

CITY           SKY/WX    TMP DP  RH WIND       PRES   REMARKS
COLUMBUS       PTCLDY    32  32 100 E5        29.97F WCI  27
GREENWOOD *+   CLEAR     37  33  88 E7        29.97F
INDIANAPOLIS   PTCLDY    37  33  85 E10       29.95F
-EAGLE CREEK   CLEAR     38  32  79 E7        29.96F
KOKOMO +       CLEAR     33  31  92 SE9       30.00  WCI  25
SHELBYVILLE    CLEAR     35  30  82 E8        29.97F WCI  29

$$

INZ033-034-041-042-049-050-058-059-060200-
EAST CENTRAL INDIANA

CITY           SKY/WX    TMP DP  RH WIND       PRES   REMARKS
MUNCIE         CLEAR     36  31  82 SE9       30.00F

$$

INZ060-061-067>069-081>083-085>088-060200-
SOUTHWEST INDIANA

CITY           SKY/WX    TMP DP  RH WIND       PRES   REMARKS
EVANSVILLE     CLOUDY    40  35  83 E6        29.92F
HUNTINGBURG *+ CLOUDY    39  34  81 E8        29.92F

$$

INZ062-063-066-070>080-084-089>092-060200-
SOUTH CENTRAL AND SOUTHEAST INDIANA

CITY           SKY/WX    TMP DP  RH WIND       PRES   REMARKS
BLOOMINGTON    CLEAR     36  31  82 E7        29.94F
MADISON *+     PTCLDY    39  34  81 E6        29.98F

$$





USA.gov is the U.S. government's official web portal to all federal, state and local government web resources and services.